sat.trackr.live / text

‹ back to catalog

STARLINK-5871

NORAD 55919 · 2023-037F

PAYLOAD ACTIVE UNKNOWN

§ Identity

Operator
Country
US
Launch date
2023-03-17
Launch site
AFWTR
Launch vehicle
Mass (kg)
RCS (m²)

Purposes: comms

External: N2YO · Heavens-Above · Gunter

§ Orbital elements

Epoch: 2026-05-25T04:21:24.073632Z

Period
96.11 min
Inclination
69.9991°
Eccentricity
0.0003645
Mean motion
14.98331141 rev/d
Perigee alt
569.5 km
Apogee alt
574.6 km
Semi-major
6,950.2 km
B*
4.5404e-5
RAAN
111.6448°
Arg perigee
267.8758°
Mean anomaly
92.1983°
Rev number
17,494

§ Raw data

STARLINK-58711 55919U 23037F   26145.18152863  .00000449  00000+0  45404-4 0  99932 55919  69.9991 111.6448 0003645 267.8758  92.1983 14.98331141174942

JSON: /api/v1/satellites/55919 · /tle

For live sub-satellite position, see the globe view (requires WebGL).

§ Visibility from observer

Set your observer location to see the next 7 days of passes ≥ 10°. The values pass through the URL so the page stays shareable.

No JS? Fill the form by hand. The geolocation button needs JavaScript.